Torna al catalogo

STARLINK-4330

AttivoComunicazioniSSO
NORAD 53080·PAYLOAD·🇺🇸 United States

Lanciato Jul 11, 2022 da Vandenberg Space Force Base

Loading…

Prossimi Passaggi (prossime 24 ore)

TLE

AggiornatoSource: CelesTrak SupGP

Epoca: Sep 15, 2026, 02:04 UTC

1 53080C 22077AP  26258.08659722 -.00055836  00000+0 -17336-2 0  2584
2 53080  97.2861  73.8874 0001596  87.0784 238.5264 15.33460777    17

Traccia STARLINK-4330 in tempo reale con AllMySat

Download on the App Store